SCP
0 0 0 0 0 0 0 0 0 0 0 0 0 0 0 0 1 1 1 0 0 -0 0 0 -0 -0 1 2 2 1 0 0 0 0 0 0 0 0 0 0 0 0 0
0 0 0 0 0 0 0 0 0 0 0 0 0 0 0 0 0 1 1 0 0 0 0 1 0 1 1 2 2 1 0 0 0 0 0 0 0 0 0 0 0 0 0
0 0 0 0 0 0 0 0 0 0 0 0 0 0 0 0 0 0 0 1 1 1 1 1 -0 2 2 2 1 1 0 0 0 0 0 0 0 0 0 0 0 0 0
0 0 0 0 0 0 0 0 0 0 0 0 0 0 0 0 0 0 0 0 1 1 1 1 1 2 1 1 1 1 0 0 0 0 0 0 0 0 0 0 0 0 0
0 0 0 0 0 0 0 0 0 0 0 0 0 0 0 0 0 0 0 0 0 0 0 1 1 2 1 1 1 1 0 0 0 0 0 0 0 0 0 0 0 0 0
0 0 0 0 0 0 0 0 0 0 0 0 0 0 0 0 0 0 0 0 0 0 0 1 2 1 1 1 1 1 0 0 0 0 0 0 0 0 0 0 0 0 0
0 0 0 0 0 0 0 0 0 0 0 0 0 0 0 0 0 -0 0 0 0 0 1 1 1 1 1 0 0 0 0 0 0 0 0 0 0 0 0 0 0 0 0
0 0 0 0 0 0 0 0 0 0 0 0 0 0 0 0 0 0 0 0 0 0 0 1 1 0 0 0 0 0 0 0 0 0 0 0 0 0 0 0 0 0 0
0 0 0 0 0 0 0 0 0 0 0 0 0 0 0 0 0 0 0 0 0 0 0 1 1 0 0 0 0 0 0 0 0 0 0 0 0 0 0 0 0 0 0
0 0 0 0 0 0 0 0 0 0 0 0 0 0 0 0 0 0 0 0 0 0 0 0 0 0 0 0 0 0 0 0 0 0 0 0 0 0 0 0 0 0 0
0 0 0 0 0 0 0 0 0 0 0 0 0 0 0 0 0 0 0 0 0 0 0 0 0 0 0 0 0 0 0 0 0 0 0 0 0 0 0 0 0 0 0
0 0 0 0 0 0 0 0 0 0 0 0 0 0 0 0 -0 0 0 0 0 0 0 0 0 0 0 0 0 0 0 0 0 0 0 0 0 0 0 0 0 0 0
0 0 0 0 0 0 0 0 0 0 0 0 0 0 0 -0 -0 -0 0 0 0 0 0 0 0 0 0 0 0 0 0 0 0 0 0 0 0 -0 0 0 0 0 -0
0 0 0 0 0 0 0 0 0 0 0 0 0 0 0 0 -0 -0 0 0 0 0 0 0 0 0 0 0 0 0 0 0 0 0 -0 -0 -0 0 -0 0 0 0 0
0 0 0 0 0 0 0 0 0 0 0 0 -0 0 0 0 0 -0 0 0 0 0 0 0 0 0 0 0 0 0 0 0 0 0 0 -0 -0 -0 -0 0 0 0 0
0 0 0 0 0 0 0 0 0 0 0 0 0 0 -0 0 0 0 0 0 0 0 0 0 0 0 0 0 0 0 0 0 0 0 0 0 0 -0 0 0 0 0 0
-0 0 0 0 0 0 0 0 0 0 -0 0 0 0 0 0 0 0 0 0 0 0 0 0 0 0 0 0 0 0 -0 -0 -0 0 0 -0 0 0 -0 0 0 0 0
-0 -0 -0 -0 0 0 -0 0 0 0 0 0 0 0 0 0 0 0 0 0 0 0 0 0 0 0 0 0 -0 -0 -0 -0 -0 0 -0 -0 -0 0 0 0 0 0 0
-0 -0 0 -0 0 0 0 0 0 0 0 0 0 -0 0 0 0 0 0 0 0 0 0 0 0 0 0 0 -0 -0 0 -0 -0 0 -0 0 -0 -0 0 0 0 0 0
0 -0 0 0 0 0 0 0 0 0 0 0 0 0 0 0 0 0 0 0 0 0 0 0 0 0 0 0 0 0 0 0 0 0 0 0 0 0 -0 0 0 0 0
0 0 0 0 0 0 0 0 0 0 0 0 0 0 0 0 0 0 0 0 0 0 0 0 0 0 0 0 0 0 0 0 0 0 0 0 0 0 0 0 0 0 0
0 0 0 0 0 0 0 0 0 0 0 -0 0 0 0 0 0 0 0 0 0 0 0 0 0 0 0 0 0 0 0 0 0 0 0 0 0 0 0 0 0 0 0
0 0 0 0 0 0 0 0 0 0 0 0 0 0 0 0 0 0 0 0 0 0 0 0 0 0 0 0 0 0 0 0 0 0 0 0 0 0 0 0 0 -0 -0
0 0 0 0 0 0 0 0 0 0 0 0 0 0 0 0 0 0 0 0 0 0 0 0 0 0 0 0 0 0 0 0 0 0 -0 -0 -0 -0 -0 -0 -0 -0 -0
0 0 0 0 0 0 0 0 0 0 0 0 0 0 0 0 0 0 0 0 0 0 0 0 0 0 0 0 0 0 0 0 -0 -0 -0 -0 -0 -0 -0 -0 -0 -0 -0
0 0 0 0 0 0 0 0 0 0 0 0 0 0 0 0 0 0 0 0 0 0 0 0 0 0 0 0 0 0 0 -0 -0 -0 -0 -0 -0 -0 -0 -0 -0 -0 0
Wind_Speed_500mb
36 30 24 26 26 25 27 30 32 35 35 35 33 39 40 48 49 55 60 69 63 70 81 79 75 81 80 77 73 63 62 65 58 46 41 34 33 30 32 37 42 44 46
41 41 39 39 42 45 45 45 44 46 45 43 45 48 44 45 51 55 60 70 69 76 85 78 79 82 84 69 64 58 55 55 52 40 35 36 34 34 33 39 43 41 35
52 52 49 48 47 45 44 37 40 45 50 53 59 64 58 51 49 55 62 62 66 71 73 79 81 83 80 73 60 55 48 47 42 39 38 42 39 39 36 38 38 36 28
56 55 54 54 54 54 55 55 54 52 53 50 53 65 65 66 63 58 54 65 67 64 71 80 82 83 83 70 56 52 46 43 42 38 45 39 38 39 35 35 33 28 23
43 49 52 56 60 64 69 69 69 70 70 69 65 67 76 78 75 64 58 57 68 69 69 69 76 71 62 56 53 49 47 49 45 46 49 45 42 41 36 32 31 25 19
64 63 63 63 63 66 67 65 69 75 77 90 98 100 82 80 70 61 62 61 61 62 69 69 63 63 56 56 49 46 48 44 45 46 44 44 44 37 34 36 31 26 22
70 69 70 70 72 75 70 72 79 81 85 72 77 74 79 77 72 71 66 67 61 69 68 67 68 62 57 54 47 44 42 40 41 35 40 39 38 37 34 37 32 26 20
66 71 67 61 62 66 74 83 86 83 79 73 58 66 76 79 77 73 59 67 64 66 66 62 63 58 54 50 48 45 41 38 39 39 39 34 34 30 30 31 18 22 23
84 84 80 77 76 74 76 80 88 82 76 76 66 63 63 67 69 62 56 57 65 65 57 57 58 55 50 45 45 41 39 33 31 34 35 32 31 27 24 26 31 30 31
96 87 84 82 83 85 84 82 86 81 86 77 71 60 57 55 62 62 50 56 64 62 57 53 44 40 45 45 40 37 31 26 25 27 26 28 29 25 22 16 19 20 28
87 91 93 94 90 85 87 84 79 68 71 76 76 66 56 60 68 61 56 56 61 59 56 48 40 36 45 43 31 28 25 21 22 23 20 23 26 26 23 23 25 21 23
82 84 89 84 82 81 77 80 79 71 77 68 74 72 55 62 77 71 58 60 57 58 52 60 54 53 50 32 28 25 24 22 23 21 23 25 25 23 21 21 20 18 17
72 79 87 89 87 74 75 69 72 68 62 73 78 75 59 68 76 78 69 60 55 56 55 59 51 49 45 32 29 25 27 25 22 22 23 24 21 20 22 20 20 21 18
69 72 73 69 68 67 61 59 54 62 67 57 58 65 66 64 63 73 65 53 50 49 48 41 41 41 34 33 31 30 26 25 24 29 28 25 23 22 18 19 20 20 18
65 67 65 61 60 61 60 59 66 66 64 65 69 66 63 59 55 60 53 47 54 54 52 44 47 41 39 36 33 31 31 32 33 30 29 28 23 19 18 18 17 18 16
62 60 63 61 58 60 60 58 57 55 55 53 48 53 63 57 47 46 42 46 63 71 64 65 50 39 41 42 38 36 36 35 26 24 29 26 22 20 20 19 19 13 11
64 60 56 53 57 61 60 60 59 53 51 55 56 59 56 45 44 40 41 58 60 64 66 54 44 44 45 41 37 41 41 36 28 26 29 27 24 19 24 20 17 15 13
55 54 54 45 43 43 47 47 47 47 49 55 61 64 50 53 43 51 50 62 69 63 49 49 49 48 47 46 46 42 39 37 32 29 26 22 24 20 21 22 19 13 11
48 49 48 47 41 36 41 41 40 42 42 45 45 47 51 46 43 54 59 72 71 60 50 49 49 49 53 48 43 39 39 33 29 27 27 24 23 24 21 20 18 15 14
42 43 40 37 35 33 31 34 39 39 38 31 43 45 63 69 66 82 74 67 61 55 52 51 52 56 50 43 38 37 37 32 26 28 23 22 21 19 19 16 15 14 14
23 25 28 30 29 37 40 38 41 40 36 47 42 51 71 92 81 71 64 58 58 58 55 57 57 52 45 39 36 35 31 30 27 27 25 19 19 18 13 14 13 10 9
11 25 33 29 32 38 44 46 42 46 43 48 48 72 81 77 71 64 58 58 56 52 52 53 52 47 45 36 34 35 31 28 27 24 28 26 25 21 19 15 12 9 6
25 41 50 35 56 58 49 51 54 52 69 76 80 75 77 71 64 61 60 56 55 53 52 53 49 47 41 34 32 31 33 31 30 27 26 25 23 20 17 17 13 16 11
49 42 47 69 68 66 69 78 79 78 83 79 78 74 67 63 63 61 58 60 57 56 53 48 49 45 39 35 32 32 29 29 28 27 24 22 19 18 18 16 20 21 17
60 65 66 65 73 83 83 82 83 80 77 77 73 68 66 64 62 59 57 59 59 58 55 50 45 41 36 33 27 28 27 26 26 28 25 26 25 23 21 17 17 14 12
50 49 53 60 64 73 76 82 79 74 72 71 68 65 61 60 58 58 59 60 62 59 55 50 45 39 38 33 29 30 31 34 38 36 34 29 25 23 21 20 18 18 17
Wind_Direction_500mb
233 233 235 244 255 263 276 287 301 296 284 284 281 279 266 260 256 253 255 253 255 259 248 263 260 267 273 273 274 271 264 267 257 266 275 260 266 265 254 258 265 277 279
231 231 235 243 248 250 253 261 271 284 288 284 288 292 284 279 264 257 258 256 257 257 266 268 266 271 273 279 272 265 267 260 260 264 265 258 262 250 247 259 267 277 275
221 223 223 227 232 243 251 260 269 266 272 278 286 290 288 282 283 275 267 262 266 266 265 265 262 266 272 270 261 260 260 253 257 259 247 253 253 245 246 258 269 274 269
217 225 228 236 243 247 252 258 263 263 265 270 280 281 283 287 286 278 279 273 260 260 262 265 265 264 265 264 258 258 250 252 253 252 253 252 246 249 250 261 271 271 276
227 232 238 243 248 253 255 257 261 268 266 267 271 278 279 281 285 279 274 284 272 267 269 268 270 264 259 258 258 247 245 250 253 240 248 248 254 245 253 269 261 263 266
266 262 259 258 259 261 263 264 263 268 268 270 271 271 267 272 280 282 272 280 279 274 274 272 273 263 257 253 246 240 246 251 250 250 246 248 250 258 261 257 251 246 240
259 262 262 265 269 271 271 274 282 285 287 269 263 254 260 268 275 277 273 269 275 269 274 269 269 261 250 242 236 238 240 248 258 249 250 257 258 263 259 245 240 247 251
254 248 250 253 260 269 276 280 282 282 285 263 263 258 258 264 272 279 278 266 273 269 270 267 258 253 233 230 228 230 235 239 245 240 246 251 260 259 252 257 250 240 227
260 257 258 259 262 267 271 275 276 267 271 263 262 257 257 264 267 274 269 276 272 268 268 260 246 236 226 225 229 230 235 232 233 235 240 249 252 247 246 242 230 218 214
256 257 257 259 261 265 270 273 264 262 262 259 249 255 255 262 263 269 267 269 271 265 265 250 238 241 231 226 226 225 224 230 232 244 245 249 243 237 232 230 232 216 215
252 254 254 254 257 262 265 263 258 254 257 255 245 246 249 255 257 263 264 266 267 262 259 228 200 227 233 230 220 226 227 225 228 224 225 232 226 223 220 220 232 224 217
251 252 248 250 253 265 249 247 248 251 249 251 247 249 252 258 258 258 263 265 259 255 243 213 200 206 219 216 214 216 219 215 216 223 231 220 210 210 212 208 197 201 203
245 246 250 255 259 247 243 246 247 248 251 245 250 246 252 261 261 254 264 265 254 250 231 214 203 207 211 204 209 215 215 203 203 206 199 191 181 179 178 185 187 197 196
242 243 250 244 241 243 246 244 240 243 243 239 237 238 248 255 257 252 262 258 243 222 207 202 213 199 197 205 198 190 194 187 193 187 188 179 168 169 163 175 184 187 190
233 238 245 242 242 244 245 242 241 247 240 235 234 238 245 259 259 256 255 246 214 194 186 201 184 184 181 176 178 183 176 176 180 188 188 180 172 165 162 168 172 187 202
230 230 228 239 243 242 241 242 239 244 238 238 240 242 246 258 261 260 242 222 201 189 190 185 181 181 178 176 176 171 173 174 173 181 180 184 182 172 175 165 176 174 200
220 225 233 231 231 235 237 240 248 239 234 237 238 240 251 253 248 249 229 203 196 194 184 179 180 178 177 172 171 174 172 172 168 168 177 182 177 182 187 182 184 195 215
211 219 220 221 227 231 233 232 231 232 231 234 242 244 235 233 238 243 202 187 185 175 175 176 175 170 168 168 168 168 168 169 164 162 158 167 178 180 188 189 187 192 219
202 210 212 216 222 221 224 226 228 236 246 250 252 225 214 202 198 175 174 190 171 170 173 170 167 166 165 164 166 169 171 166 164 164 166 173 170 171 170 177 182 198 221
196 198 197 200 201 206 214 212 218 219 224 235 179 174 159 163 170 164 170 171 168 164 165 163 162 160 161 161 167 171 167 169 173 172 179 178 172 181 184 192 197 213 223
189 213 189 199 205 204 213 217 205 212 206 178 181 174 176 165 155 163 168 167 159 154 155 158 161 163 164 166 169 170 168 163 164 172 179 184 179 179 188 182 188 188 191
189 186 164 182 184 179 187 177 174 178 193 196 198 167 157 160 155 156 155 153 152 156 162 161 160 167 172 173 167 164 161 164 165 164 164 166 174 178 175 177 162 147 125
114 124 141 134 145 150 153 154 168 166 162 164 154 158 157 149 152 153 151 150 156 157 162 168 166 168 167 167 165 166 169 174 174 176 178 175 174 184 183 179 157 152 133
128 128 136 130 143 147 141 132 143 144 145 148 154 152 151 153 152 152 154 157 161 163 165 164 163 165 166 170 172 166 167 171 169 168 174 177 174 165 171 162 163 159 160
134 138 141 143 142 134 136 139 144 149 152 152 153 154 153 153 155 156 158 161 161 160 160 161 162 160 160 157 157 153 153 156 153 150 147 153 154 145 145 146 153 163 167
131 133 129 135 139 143 147 149 147 147 150 154 155 155 156 157 155 157 156 157 158 157 158 158 155 153 153 149 146 148 145 142 143 144 145 150 157 160 163 163 168 162 147
Wind_Speed_850mb
36 30 24 26 26 25 27 30 32 35 35 35 33 39 40 48 49 55 60 69 63 70 81 79 75 81 80 77 73 63 62 65 58 46 41 34 33 30 32 37 42 44 46
41 41 39 39 42 45 45 45 44 46 45 43 45 48 44 45 51 55 60 70 69 76 85 78 79 82 84 69 64 58 55 55 52 40 35 36 34 34 33 39 43 41 35
52 52 49 48 47 45 44 37 40 45 50 53 59 64 58 51 49 55 62 62 66 71 73 79 81 83 80 73 60 55 48 47 42 39 38 42 39 39 36 38 38 36 28
56 55 54 54 54 54 55 55 54 52 53 50 53 65 65 66 63 58 54 65 67 64 71 80 82 83 83 70 56 52 46 43 42 38 45 39 38 39 35 35 33 28 23
43 49 52 56 60 64 69 69 69 70 70 69 65 67 76 78 75 64 58 57 68 69 69 69 76 71 62 56 53 49 47 49 45 46 49 45 42 41 36 32 31 25 19
64 63 63 63 63 66 67 65 69 75 77 90 98 100 82 80 70 61 62 61 61 62 69 69 63 63 56 56 49 46 48 44 45 46 44 44 44 37 34 36 31 26 22
70 69 70 70 72 75 70 72 79 81 85 72 77 74 79 77 72 71 66 67 61 69 68 67 68 62 57 54 47 44 42 40 41 35 40 39 38 37 34 37 32 26 20
66 71 67 61 62 66 74 83 86 83 79 73 58 66 76 79 77 73 59 67 64 66 66 62 63 58 54 50 48 45 41 38 39 39 39 34 34 30 30 31 18 22 23
84 84 80 77 76 74 76 80 88 82 76 76 66 63 63 67 69 62 56 57 65 65 57 57 58 55 50 45 45 41 39 33 31 34 35 32 31 27 24 26 31 30 31
96 87 84 82 83 85 84 82 86 81 86 77 71 60 57 55 62 62 50 56 64 62 57 53 44 40 45 45 40 37 31 26 25 27 26 28 29 25 22 16 19 20 28
87 91 93 94 90 85 87 84 79 68 71 76 76 66 56 60 68 61 56 56 61 59 56 48 40 36 45 43 31 28 25 21 22 23 20 23 26 26 23 23 25 21 23
82 84 89 84 82 81 77 80 79 71 77 68 74 72 55 62 77 71 58 60 57 58 52 60 54 53 50 32 28 25 24 22 23 21 23 25 25 23 21 21 20 18 17
72 79 87 89 87 74 75 69 72 68 62 73 78 75 59 68 76 78 69 60 55 56 55 59 51 49 45 32 29 25 27 25 22 22 23 24 21 20 22 20 20 21 18
69 72 73 69 68 67 61 59 54 62 67 57 58 65 66 64 63 73 65 53 50 49 48 41 41 41 34 33 31 30 26 25 24 29 28 25 23 22 18 19 20 20 18
65 67 65 61 60 61 60 59 66 66 64 65 69 66 63 59 55 60 53 47 54 54 52 44 47 41 39 36 33 31 31 32 33 30 29 28 23 19 18 18 17 18 16
62 60 63 61 58 60 60 58 57 55 55 53 48 53 63 57 47 46 42 46 63 71 64 65 50 39 41 42 38 36 36 35 26 24 29 26 22 20 20 19 19 13 11
64 60 56 53 57 61 60 60 59 53 51 55 56 59 56 45 44 40 41 58 60 64 66 54 44 44 45 41 37 41 41 36 28 26 29 27 24 19 24 20 17 15 13
55 54 54 45 43 43 47 47 47 47 49 55 61 64 50 53 43 51 50 62 69 63 49 49 49 48 47 46 46 42 39 37 32 29 26 22 24 20 21 22 19 13 11
48 49 48 47 41 36 41 41 40 42 42 45 45 47 51 46 43 54 59 72 71 60 50 49 49 49 53 48 43 39 39 33 29 27 27 24 23 24 21 20 18 15 14
42 43 40 37 35 33 31 34 39 39 38 31 43 45 63 69 66 82 74 67 61 55 52 51 52 56 50 43 38 37 37 32 26 28 23 22 21 19 19 16 15 14 14
23 25 28 30 29 37 40 38 41 40 36 47 42 51 71 92 81 71 64 58 58 58 55 57 57 52 45 39 36 35 31 30 27 27 25 19 19 18 13 14 13 10 9
11 25 33 29 32 38 44 46 42 46 43 48 48 72 81 77 71 64 58 58 56 52 52 53 52 47 45 36 34 35 31 28 27 24 28 26 25 21 19 15 12 9 6
25 41 50 35 56 58 49 51 54 52 69 76 80 75 77 71 64 61 60 56 55 53 52 53 49 47 41 34 32 31 33 31 30 27 26 25 23 20 17 17 13 16 11
49 42 47 69 68 66 69 78 79 78 83 79 78 74 67 63 63 61 58 60 57 56 53 48 49 45 39 35 32 32 29 29 28 27 24 22 19 18 18 16 20 21 17
60 65 66 65 73 83 83 82 83 80 77 77 73 68 66 64 62 59 57 59 59 58 55 50 45 41 36 33 27 28 27 26 26 28 25 26 25 23 21 17 17 14 12
50 49 53 60 64 73 76 82 79 74 72 71 68 65 61 60 58 58 59 60 62 59 55 50 45 39 38 33 29 30 31 34 38 36 34 29 25 23 21 20 18 18 17
Wind_Direction_850mb
233 233 235 244 255 263 276 287 301 296 284 284 281 279 266 260 256 253 255 253 255 259 248 263 260 267 273 273 274 271 264 267 257 266 275 260 266 265 254 258 265 277 279
231 231 235 243 248 250 253 261 271 284 288 284 288 292 284 279 264 257 258 256 257 257 266 268 266 271 273 279 272 265 267 260 260 264 265 258 262 250 247 259 267 277 275
221 223 223 227 232 243 251 260 269 266 272 278 286 290 288 282 283 275 267 262 266 266 265 265 262 266 272 270 261 260 260 253 257 259 247 253 253 245 246 258 269 274 269
217 225 228 236 243 247 252 258 263 263 265 270 280 281 283 287 286 278 279 273 260 260 262 265 265 264 265 264 258 258 250 252 253 252 253 252 246 249 250 261 271 271 276
227 232 238 243 248 253 255 257 261 268 266 267 271 278 279 281 285 279 274 284 272 267 269 268 270 264 259 258 258 247 245 250 253 240 248 248 254 245 253 269 261 263 266
266 262 259 258 259 261 263 264 263 268 268 270 271 271 267 272 280 282 272 280 279 274 274 272 273 263 257 253 246 240 246 251 250 250 246 248 250 258 261 257 251 246 240
259 262 262 265 269 271 271 274 282 285 287 269 263 254 260 268 275 277 273 269 275 269 274 269 269 261 250 242 236 238 240 248 258 249 250 257 258 263 259 245 240 247 251
254 248 250 253 260 269 276 280 282 282 285 263 263 258 258 264 272 279 278 266 273 269 270 267 258 253 233 230 228 230 235 239 245 240 246 251 260 259 252 257 250 240 227
260 257 258 259 262 267 271 275 276 267 271 263 262 257 257 264 267 274 269 276 272 268 268 260 246 236 226 225 229 230 235 232 233 235 240 249 252 247 246 242 230 218 214
256 257 257 259 261 265 270 273 264 262 262 259 249 255 255 262 263 269 267 269 271 265 265 250 238 241 231 226 226 225 224 230 232 244 245 249 243 237 232 230 232 216 215
252 254 254 254 257 262 265 263 258 254 257 255 245 246 249 255 257 263 264 266 267 262 259 228 200 227 233 230 220 226 227 225 228 224 225 232 226 223 220 220 232 224 217
251 252 248 250 253 265 249 247 248 251 249 251 247 249 252 258 258 258 263 265 259 255 243 213 200 206 219 216 214 216 219 215 216 223 231 220 210 210 212 208 197 201 203
245 246 250 255 259 247 243 246 247 248 251 245 250 246 252 261 261 254 264 265 254 250 231 214 203 207 211 204 209 215 215 203 203 206 199 191 181 179 178 185 187 197 196
242 243 250 244 241 243 246 244 240 243 243 239 237 238 248 255 257 252 262 258 243 222 207 202 213 199 197 205 198 190 194 187 193 187 188 179 168 169 163 175 184 187 190
233 238 245 242 242 244 245 242 241 247 240 235 234 238 245 259 259 256 255 246 214 194 186 201 184 184 181 176 178 183 176 176 180 188 188 180 172 165 162 168 172 187 202
230 230 228 239 243 242 241 242 239 244 238 238 240 242 246 258 261 260 242 222 201 189 190 185 181 181 178 176 176 171 173 174 173 181 180 184 182 172 175 165 176 174 200
220 225 233 231 231 235 237 240 248 239 234 237 238 240 251 253 248 249 229 203 196 194 184 179 180 178 177 172 171 174 172 172 168 168 177 182 177 182 187 182 184 195 215
211 219 220 221 227 231 233 232 231 232 231 234 242 244 235 233 238 243 202 187 185 175 175 176 175 170 168 168 168 168 168 169 164 162 158 167 178 180 188 189 187 192 219
202 210 212 216 222 221 224 226 228 236 246 250 252 225 214 202 198 175 174 190 171 170 173 170 167 166 165 164 166 169 171 166 164 164 166 173 170 171 170 177 182 198 221
196 198 197 200 201 206 214 212 218 219 224 235 179 174 159 163 170 164 170 171 168 164 165 163 162 160 161 161 167 171 167 169 173 172 179 178 172 181 184 192 197 213 223
189 213 189 199 205 204 213 217 205 212 206 178 181 174 176 165 155 163 168 167 159 154 155 158 161 163 164 166 169 170 168 163 164 172 179 184 179 179 188 182 188 188 191
189 186 164 182 184 179 187 177 174 178 193 196 198 167 157 160 155 156 155 153 152 156 162 161 160 167 172 173 167 164 161 164 165 164 164 166 174 178 175 177 162 147 125
114 124 141 134 145 150 153 154 168 166 162 164 154 158 157 149 152 153 151 150 156 157 162 168 166 168 167 167 165 166 169 174 174 176 178 175 174 184 183 179 157 152 133
128 128 136 130 143 147 141 132 143 144 145 148 154 152 151 153 152 152 154 157 161 163 165 164 163 165 166 170 172 166 167 171 169 168 174 177 174 165 171 162 163 159 160
134 138 141 143 142 134 136 139 144 149 152 152 153 154 153 153 155 156 158 161 161 160 160 161 162 160 160 157 157 153 153 156 153 150 147 153 154 145 145 146 153 163 167
131 133 129 135 139 143 147 149 147 147 150 154 155 155 156 157 155 157 156 157 158 157 158 158 155 153 153 149 146 148 145 142 143 144 145 150 157 160 163 163 168 162 147